Home   Weather   Cincinnati   Past weeks
Flag for USA

Past Weather in Cincinnati, Ohio, USA — November 2011

Now
69 °F

Overcast.


Feels Like: 69 °F
Forecast: 75 / 66 °F
Wind: 17 mph from West

Location: Cincinnati Municipal Airport Lunken Field

Current Time: Jun 20, 2019 at 5:42:44 pm

Latest Report: Jun 20, 2019 at 4:53 pm


Visibility: 10 mi

Pressure: 29.70 "Hg

Humidity: 79%

Dew Point: 62 °F

Location of CincinnatiLocation

November 2011 Weather in Cincinnati — Graph

°F

High & Low Weather Summary for November 2011

 TemperatureHumidityPressure
High74 °F (Nov 14, 3:53 pm)100% (Nov 1, 3:09 am)30.46 "Hg (Nov 1, 3:09 am)
Low24 °F (Nov 18, 6:53 am)25% (Nov 17, 2:53 pm)29.63 "Hg (Nov 28, 10:53 pm)
Average49 °F75%30.08 "Hg
* Reported Nov 1 12:53 am — Nov 30 10:53 pm, Cincinnati. Weather by CustomWeather, © 2019

Note: Actual official high and low records may vary slightly from our data, if they occured in-between our weather recording intervals... More about our weather records

Advertising

Cincinnati Weather History for November 1, 2011

Scroll right to see more
 ConditionsComfort  
Time TempWeatherWind HumidityBarometerVisibility
12:53 am
Tue, Nov 1
37 °FFog.No wind93%30.21 "Hg5 mi
1:53 am34 °FFog.No wind97%30.21 "Hg3 mi
2:05 am36 °FFog.No wind93%30.21 "Hg2 mi
3:01 am36 °FFog.No wind93%30.22 "Hg3 mi
3:09 am34 °FFog.No wind100%30.23 "Hg2 mi
4:08 am34 °FFog.No wind87%30.24 "Hg1 mi
5:01 am32 °FIce fog.No wind93%30.23 "Hg1 mi
5:10 am34 °FFog.No wind87%30.24 "Hg1 mi
5:53 am33 °FFog.No wind96%30.26 "Hg0 mi
6:53 am33 °FFog.No wind96%30.27 "Hg0 mi
7:53 am34 °FFog.No wind97%30.29 "Hg0 mi
8:53 am34 °FFog.No wind97%30.31 "Hg0 mi
9:53 am37 °FFog.No wind96%30.33 "Hg0 mi
10:06 am37 °FFog.No wind100%30.32 "Hg1 mi
10:53 am43 °FSunny.No wind93%30.32 "Hg10 mi
11:53 am53 °FSunny.3 mph61%30.32 "Hg10 mi
12:53 pm58 °FSunny.7 mph46%30.30 "Hg10 mi
1:53 pm60 °FSunny.5 mph42%30.27 "Hg10 mi
2:53 pm64 °FSunny.5 mph37%30.25 "Hg10 mi
3:53 pm64 °FSunny.8 mph34%30.24 "Hg10 mi
4:53 pm64 °FSunny.9 mph34%30.24 "Hg10 mi
5:53 pm61 °FSunny.6 mph41%30.24 "Hg10 mi
6:53 pm55 °FClear.No wind53%30.24 "Hg10 mi
7:53 pm48 °FClear.No wind74%30.25 "Hg10 mi
8:53 pm46 °FClear.No wind79%30.26 "Hg10 mi
9:53 pm45 °FClear.No wind82%30.27 "Hg10 mi
10:53 pm42 °FClear.No wind89%30.27 "Hg10 mi
11:53 pm42 °FClear.No wind89%30.26 "Hg10 mi
Weather by CustomWeather, © 2019

See weather overview